Theta_e
333 334 335 337 338 338 340 341 342 341 341 338 336 336 336 334 332 331 330 328 326 326 327 326 324 324 322 322 321 321 320 318 318 317 316 316 317 314 314 314 314 315 315 316 317 317 320 321 317 319 320 321 317 318 317 319 317 317 317 317 318 319 317
333 335 336 337 337 339 340 342 342 341 338 334 335 335 335 332 331 330 329 327 326 325 325 325 325 322 321 320 320 319 318 319 322 322 319 322 320 315 315 316 316 316 317 317 317 320 318 319 318 317 316 318 317 317 317 319 318 317 317 317 319 316 315
333 335 336 337 337 338 340 341 341 339 335 334 335 334 333 331 330 329 328 325 325 325 325 323 322 320 320 319 319 319 320 320 319 317 315 314 315 316 317 317 316 316 317 318 319 321 322 317 318 320 317 317 317 317 317 317 318 316 316 316 316 315 316
334 335 336 337 338 340 340 341 339 335 334 334 334 333 332 330 330 329 327 326 325 324 322 322 321 320 319 319 319 318 318 317 316 315 315 315 315 316 317 317 317 318 318 318 320 321 321 317 317 318 321 317 317 317 318 317 317 316 316 316 316 316 316
334 336 336 336 337 338 339 340 337 333 332 333 334 333 330 329 329 328 326 325 324 323 322 321 321 320 319 318 317 317 316 315 315 315 315 316 317 316 315 315 315 316 317 318 321 320 317 317 317 317 317 317 317 317 317 317 317 318 317 316 314 316 314
333 335 335 336 337 338 339 338 335 332 331 331 332 330 329 328 327 326 325 324 323 324 323 321 320 319 317 318 318 317 317 317 317 317 315 315 314 314 314 314 315 316 316 317 322 315 316 316 316 316 316 316 316 316 316 317 317 317 316 316 315 313 312
333 335 335 336 337 338 338 336 333 332 332 332 331 331 329 327 326 324 323 322 323 322 321 319 319 317 317 318 316 317 315 315 315 315 316 314 315 314 314 318 321 315 318 319 317 316 315 316 315 315 315 315 318 315 316 316 316 317 316 316 314 315 313
334 334 336 336 337 338 336 334 332 331 331 330 329 328 327 326 324 322 322 322 321 321 320 319 318 318 317 317 316 315 315 315 315 315 316 316 316 316 315 315 316 320 317 316 318 316 315 314 315 315 315 316 314 315 315 316 316 316 316 315 314 313 312
336 336 336 337 337 337 335 332 331 330 329 328 328 328 327 325 322 322 322 321 321 320 320 319 318 317 317 316 314 314 314 314 314 314 314 314 314 313 314 315 315 317 316 316 317 320 316 315 314 314 314 315 314 314 315 315 316 316 316 316 314 313 312
335 335 336 337 337 335 333 331 330 329 328 327 327 326 325 324 322 322 321 320 319 319 318 318 317 317 316 315 314 314 313 313 313 314 313 313 313 313 314 315 317 317 315 316 317 317 320 317 315 315 314 314 314 314 314 315 315 316 317 316 316 315 314
334 335 335 335 334 332 330 329 329 328 327 327 326 325 324 322 322 321 320 319 318 318 318 317 317 316 316 315 314 313 313 313 313 313 313 313 313 314 314 316 319 320 315 316 317 318 319 321 320 315 315 315 314 314 315 315 315 315 316 317 317 316 316
334 334 333 334 332 329 328 329 329 328 327 326 327 325 323 322 321 320 319 319 318 317 317 317 316 316 315 314 313 313 312 312 312 313 313 314 313 314 316 317 317 319 320 317 317 318 317 317 316 324 315 315 315 315 315 315 315 315 315 316 317 317 317
333 333 333 332 331 329 329 328 328 328 327 327 327 324 322 321 320 319 319 319 318 317 317 316 315 315 314 313 312 312 312 311 312 312 314 316 314 316 316 316 317 318 318 320 317 317 318 317 316 322 316 316 315 315 315 315 316 315 315 315 315 317 318
333 332 332 332 330 328 328 328 328 327 327 326 326 324 322 321 320 320 319 317 317 317 317 316 315 314 313 313 312 312 312 312 312 313 314 314 316 315 315 316 317 319 322 320 318 318 317 317 317 317 321 318 317 318 319 317 316 316 317 317 316 318 318
331 330 331 330 329 328 328 327 327 327 327 326 325 323 321 321 320 321 320 319 317 316 316 317 315 314 313 313 313 313 313 313 314 314 320 317 315 315 315 315 317 318 320 322 323 325 320 319 318 317 317 318 317 317 318 318 317 317 318 318 318 317 318
330 330 330 330 329 329 328 328 328 327 327 327 325 322 321 320 320 319 318 318 317 316 317 316 315 314 313 313 313 314 313 314 317 316 315 313 314 314 314 315 318 318 318 318 318 319 324 321 321 318 317 316 316 316 317 317 316 323 326 328 320 318 318
330 330 330 330 329 329 329 328 328 327 327 326 325 323 321 320 320 319 318 317 316 316 316 316 315 315 313 313 314 314 314 315 315 315 315 313 313 313 314 315 319 318 317 317 319 318 322 321 318 319 318 317 316 316 316 317 317 325 325 326 326 322 317
330 330 330 330 329 329 328 328 327 327 327 326 326 324 321 320 319 318 318 317 316 316 316 315 315 315 314 314 314 314 315 315 314 314 313 313 313 313 315 316 316 317 317 318 318 320 322 319 319 318 318 319 319 318 318 319 327 327 327 324 323 326 323
331 331 331 330 329 329 329 328 327 328 328 327 326 324 321 320 318 317 318 317 317 317 315 315 315 315 315 315 315 314 315 314 313 313 313 314 314 315 316 315 316 316 317 318 319 322 320 319 318 318 318 319 319 320 320 321 326 327 328 327 325 325 326
332 332 332 331 330 329 329 329 328 329 329 328 327 325 322 321 319 319 320 319 318 316 315 315 315 315 315 315 315 316 315 313 313 313 314 314 314 314 314 314 316 315 316 321 321 319 319 318 318 318 318 318 319 320 320 320 326 328 329 329 327 327 326
332 332 331 331 330 330 330 330 329 329 328 327 327 325 322 320 321 321 319 318 317 316 316 315 315 315 316 316 317 317 315 314 313 313 313 314 314 314 315 315 315 316 320 321 319 318 318 318 318 320 325 324 322 321 322 321 328 329 329 330 329 328 330
333 333 331 331 330 330 330 330 329 328 328 330 328 324 322 321 321 320 319 318 317 316 316 315 315 315 316 316 316 316 315 314 313 314 314 313 314 314 314 315 317 318 318 324 319 319 319 320 320 320 320 320 320 319 319 320 324 326 327 328 328 329 326
334 333 333 332 332 331 332 332 330 330 330 329 327 323 322 322 321 320 318 317 317 316 316 315 314 315 316 317 316 316 316 315 314 314 313 313 313 313 313 314 315 316 321 320 319 318 318 319 319 320 320 321 323 321 321 320 323 323 325 326 327 328 322
335 335 334 333 333 332 332 332 332 331 330 328 326 324 323 322 321 319 318 317 317 317 317 316 315 316 317 317 317 317 316 316 315 315 315 313 313 313 314 314 315 316 324 321 319 318 318 318 318 319 321 323 323 322 321 323 327 327 324 324 325 328 322
334 334 332 331 331 331 332 332 332 332 330 327 324 323 322 321 320 319 318 318 317 317 316 315 316 317 317 317 318 318 317 316 314 314 314 313 314 314 314 315 316 319 322 321 319 319 318 323 321 321 321 321 321 327 329 325 325 323 322 323 325 327 323
333 332 331 332 333 333 333 333 331 329 327 324 323 322 322 321 320 320 318 318 317 316 316 316 317 318 318 318 318 318 317 316 318 316 315 314 314 315 315 318 319 318 319 319 319 319 319 319 320 319 319 321 321 321 321 321 322 327 323 323 324 327 324
334 332 331 332 332 334 332 331 330 328 326 325 322 322 322 321 319 319 319 318 316 316 317 317 319 319 319 318 318 317 317 316 317 317 317 316 316 316 320 319 318 318 318 318 317 317 317 317 318 318 319 320 320 320 320 321 323 327 323 323 323 325 327
331 331 333 334 333 332 331 332 330 328 326 323 321 322 322 321 320 319 319 317 316 317 318 319 319 319 318 317 317 317 317 317 318 319 318 318 318 317 318 319 319 319 318 318 317 317 317 317 320 319 318 319 320 320 321 323 328 329 328 324 322 321 327
329 330 330 331 331 332 332 330 329 327 324 322 321 321 321 321 320 319 319 316 317 318 319 319 319 318 317 318 318 319 318 318 320 321 320 320 320 317 317 318 319 319 321 318 317 316 316 317 317 317 317 318 318 319 320 320 322 327 329 328 321 317 322
330 330 332 332 332 332 332 330 329 326 324 322 321 321 321 321 320 320 318 318 319 320 320 320 318 318 318 320 319 320 320 320 321 321 320 322 321 318 317 316 317 318 318 319 318 318 317 317 317 316 316 316 317 318 320 321 320 324 327 330 324 317 316
329 329 330 331 331 332 331 329 326 324 323 322 321 321 321 321 320 321 318 319 321 320 319 318 318 318 318 319 319 320 320 320 319 320 319 321 321 319 318 317 316 316 316 318 317 316 316 316 317 317 317 317 317 318 319 320 320 320 324 328 332 321 315
329 331 331 332 331 331 330 328 325 324 322 321 321 321 322 322 322 321 320 320 321 320 319 318 318 319 318 319 318 319 319 318 318 319 320 320 320 320 319 319 319 318 317 316 316 316 315 316 317 318 318 318 318 318 319 320 320 320 320 325 327 331 323
328 330 330 329 330 330 327 326 324 323 322 320 321 322 322 322 322 322 321 321 320 319 319 319 319 321 319 318 318 318 318 318 317 317 318 318 317 318 321 321 318 318 322 321 317 316 317 318 319 320 320 319 319 319 320 320 320 320 319 319 319 320 325
329 330 330 330 329 328 326 325 324 323 322 321 322 322 322 322 323 323 321 320 319 319 318 320 320 318 317 317 318 318 317 318 324 323 317 317 316 316 315 317 319 317 317 318 317 316 316 318 320 319 319 318 318 318 318 319 319 319 319 320 320 321 321
329 329 329 328 327 327 325 324 324 324 323 322 322 322 323 322 322 321 319 319 319 318 318 319 322 320 316 316 316 318 321 320 322 323 319 316 317 317 317 318 317 318 318 319 319 319 319 318 318 320 318 319 318 318 318 319 319 320 319 326 318 322 320
329 328 328 328 328 327 327 327 324 324 323 322 322 322 322 321 320 319 319 319 319 318 318 320 320 318 315 315 315 316 322 321 318 318 321 319 318 318 318 323 319 317 318 318 326 324 318 315 320 320 321 319 320 321 319 319 321 318 312 308 306 306 307
328 328 327 327 326 325 325 325 325 325 324 322 322 321 322 320 319 318 318 319 319 318 319 319 320 318 314 317 316 319 321 320 318 317 317 317 317 317 319 319 320 307 309 316 324 318 309 305 307 310 315 323 321 322 318 319 316 310 307 306 303 299 298
329 328 328 328 326 325 325 325 325 324 324 321 321 321 321 320 318 318 318 318 318 318 319 319 319 316 314 316 317 323 325 318 320 321 318 317 317 317 318 317 316 318 309 306 309 311 307 305 303 303 304 308 313 322 323 318 310 306 305 304 303 301 298
Wind_Speed
12 11 10 11 12 12 12 12 12 10 9 8 7 7 7 8 9 9 10 9 11 10 8 9 9 9 10 9 9 8 8 7 6 6 6 5 5 5 5 5 6 5 5 5 3 3 3 2 4 4 5 5 5 5 5 5 5 4 4 5 5 5 5
12 11 12 11 12 12 12 13 14 11 11 9 9 12 9 12 11 9 8 9 10 10 9 9 9 9 10 8 8 8 9 7 6 5 5 5 4 4 5 5 6 5 4 4 4 3 3 5 5 5 5 5 5 5 5 5 4 4 4 4 5 5 5
11 12 12 11 11 11 13 12 12 11 13 12 9 7 9 11 10 10 9 9 10 9 8 9 9 10 9 9 9 8 8 7 7 7 7 6 6 5 5 6 6 5 4 4 4 3 3 4 5 5 5 5 5 6 5 5 5 5 4 3 4 4 5
11 12 12 11 10 11 12 13 12 12 13 12 9 11 11 11 10 9 8 11 11 10 10 8 10 10 9 9 9 8 7 6 6 7 6 6 6 5 6 5 4 4 4 5 4 3 2 4 5 5 5 5 5 5 6 5 5 5 5 5 5 4 4
12 12 11 12 12 12 12 12 13 12 14 14 13 10 11 11 10 9 9 9 11 11 9 10 9 9 8 8 7 7 7 7 6 6 5 5 6 5 6 5 5 5 4 4 4 4 4 4 4 4 4 5 5 5 5 5 5 5 5 5 5 4 4
14 13 11 11 11 11 11 12 14 15 15 16 11 10 10 11 9 10 10 10 8 8 9 8 10 10 10 8 8 7 5 5 5 5 5 6 6 6 6 6 6 5 5 4 4 4 4 4 4 3 5 4 4 4 4 5 5 5 5 5 5 4 5
12 12 11 10 11 11 11 12 13 12 13 11 10 10 9 9 10 10 9 9 8 11 9 9 9 9 9 8 8 8 7 6 6 6 5 6 6 6 5 4 4 5 4 4 4 3 5 4 3 4 4 4 4 5 4 5 5 4 4 5 5 5 4
10 10 9 11 11 11 11 12 13 12 11 10 12 11 11 10 10 10 11 9 10 10 9 10 8 8 8 7 7 8 7 6 5 5 4 6 5 6 4 4 4 4 4 6 4 4 5 4 3 4 4 4 5 4 4 4 5 4 5 5 5 5 3
9 11 10 10 11 10 10 12 12 12 12 12 11 10 11 10 9 10 11 10 8 10 8 8 8 7 8 7 7 7 6 6 5 5 6 6 5 6 5 5 5 5 6 5 5 3 4 3 4 5 5 4 4 4 4 5 4 4 4 5 4 4 3
11 12 11 11 10 10 11 11 12 12 12 11 9 10 10 9 9 10 10 9 9 10 10 8 8 8 8 7 7 7 6 6 5 5 5 6 5 5 5 5 5 6 6 5 4 4 3 4 5 6 4 4 4 4 4 4 4 4 4 4 3 3 3
8 10 11 12 12 12 12 12 13 11 12 10 10 9 9 10 9 10 9 9 9 8 8 8 8 8 7 8 8 6 6 6 5 5 5 5 4 5 5 5 5 4 6 5 4 3 3 3 4 4 4 4 4 3 4 3 3 3 3 3 2 2 2
9 9 11 12 12 13 13 13 11 12 12 11 11 11 10 10 10 9 9 8 8 9 8 7 7 8 8 7 7 5 6 5 5 5 5 5 5 5 5 4 4 4 4 5 6 4 3 3 3 2 1 2 2 2 2 2 2 2 2 2 2 1 1
8 9 11 12 11 11 11 11 13 13 13 12 12 11 11 11 10 10 9 9 8 9 9 9 8 8 8 7 7 6 6 6 6 5 5 4 5 4 4 5 4 4 5 3 5 5 4 3 2 1 1 1 1 1 0 0 2 1 1 2 2 2 1
11 10 10 9 10 12 13 12 12 12 12 13 11 11 11 10 10 10 10 9 8 8 8 7 8 8 7 6 6 6 6 6 6 6 5 4 4 4 5 5 4 4 3 3 3 2 3 4 4 3 2 2 2 2 2 1 2 3 2 2 1 2 2
11 12 11 11 11 11 11 12 11 12 12 12 12 12 12 10 9 8 8 8 8 8 9 8 8 8 8 6 6 6 5 5 5 5 4 4 4 4 4 4 4 3 3 3 4 3 2 1 1 3 3 3 3 4 2 3 3 3 3 3 3 1 3
11 11 12 12 12 12 12 12 12 12 13 12 13 13 12 11 11 10 10 9 9 8 8 8 8 9 8 8 7 6 5 5 4 5 5 5 5 4 4 4 4 4 4 4 3 2 2 2 1 2 4 4 5 4 4 4 3 4 7 6 3 3 2
11 12 12 11 12 12 12 13 12 13 14 13 13 13 11 11 11 11 10 10 10 9 8 8 9 9 10 9 7 6 6 5 5 4 4 4 5 5 5 4 3 3 3 4 3 3 2 2 2 3 3 4 4 5 4 4 4 9 6 4 5 3 3
11 12 12 12 12 11 13 13 14 14 14 14 14 14 13 12 11 11 11 10 10 10 9 8 9 9 9 9 8 7 7 6 6 5 5 4 5 5 4 4 4 3 4 3 2 2 2 1 4 4 4 4 4 4 4 5 6 9 9 7 4 3 3
11 11 12 12 12 13 14 15 16 15 14 13 14 14 14 14 13 12 12 11 10 9 9 9 9 8 8 7 7 8 8 7 7 6 6 6 6 5 5 5 5 4 3 4 3 1 1 2 2 3 3 4 4 5 5 5 7 8 9 8 5 2 2
11 11 11 12 13 14 14 12 12 14 16 16 16 15 14 14 13 13 12 11 10 10 9 9 9 9 9 7 7 5 5 9 7 7 6 5 5 5 5 4 3 3 3 2 1 0 2 2 4 4 4 4 4 5 5 5 7 8 8 9 7 4 3
12 11 11 12 12 12 13 14 14 13 11 12 13 12 12 10 10 11 11 10 11 10 10 9 8 7 7 8 7 6 4 6 8 7 5 5 5 5 5 4 4 3 2 2 2 3 3 3 4 4 4 5 4 3 5 5 7 6 8 8 9 5 3
13 12 13 12 14 14 14 14 15 15 13 11 11 12 13 13 13 14 12 10 11 11 10 10 9 8 8 9 8 7 7 6 7 6 5 5 5 5 5 4 3 2 2 1 1 1 0 3 2 4 6 5 4 3 5 6 7 6 7 7 8 8 3
14 15 15 14 15 16 15 14 13 13 13 13 12 13 13 13 12 12 11 11 9 9 9 8 9 8 8 8 7 6 6 7 6 6 5 5 5 5 5 4 4 2 1 1 1 2 3 4 4 3 4 6 5 4 5 6 7 7 6 6 6 6 4
9 10 11 9 8 8 10 11 10 11 13 13 12 12 11 12 12 12 11 10 9 10 9 9 10 10 9 8 7 7 6 6 6 6 5 5 5 5 4 3 2 2 2 3 3 4 5 4 4 4 3 4 6 4 5 6 7 8 7 7 5 6 5
8 6 10 7 4 4 5 9 11 10 10 12 12 11 12 13 14 13 12 12 11 11 12 11 9 8 8 8 8 7 6 5 5 5 6 6 5 5 5 5 5 2 3 3 3 5 4 3 3 5 4 4 5 6 6 5 6 9 7 7 5 4 4
8 11 12 11 9 11 9 6 11 11 13 13 13 13 14 14 13 13 13 12 12 12 12 11 9 8 8 7 7 6 6 5 6 5 6 7 5 5 5 3 2 4 3 3 4 4 3 3 3 5 6 5 4 4 4 5 6 7 9 7 5 6 4
6 8 8 8 8 6 7 9 11 11 12 10 12 12 13 13 13 13 12 12 12 13 11 9 8 8 8 7 6 6 6 6 6 7 6 6 6 5 3 4 4 3 3 4 3 3 3 4 4 4 6 6 5 4 5 4 6 7 9 9 6 6 7
16 13 10 7 6 6 7 4 4 7 8 7 11 12 12 13 13 12 11 11 13 11 8 8 8 8 7 7 7 7 6 6 6 6 6 5 4 4 4 4 4 3 4 3 3 4 4 4 4 4 5 6 5 5 6 6 8 6 8 9 6 6 10
13 12 12 11 9 9 9 7 6 6 8 8 10 10 10 12 12 11 11 12 11 8 8 8 8 8 8 7 7 7 7 7 7 6 5 4 5 5 5 3 3 3 3 3 3 2 4 5 4 4 5 6 6 5 5 5 5 7 6 7 6 7 9
12 10 9 9 9 8 9 8 6 6 7 9 9 9 9 11 11 10 11 12 8 6 6 7 7 7 7 7 7 7 7 7 7 6 5 5 5 5 5 4 4 3 3 3 3 3 4 5 4 3 5 6 7 7 5 4 4 6 8 6 6 7 10
11 11 10 10 10 10 9 11 12 9 9 8 9 8 9 10 12 12 12 10 7 7 8 8 8 7 7 7 7 8 7 6 6 6 6 5 6 5 4 4 3 3 3 3 3 4 4 5 4 4 5 5 6 7 7 5 4 5 6 8 7 8 9
11 9 9 9 9 10 9 10 11 12 11 9 9 8 8 8 12 14 10 9 8 8 9 9 8 7 8 7 7 7 5 5 5 5 5 5 5 5 5 5 4 4 4 3 4 4 4 5 4 5 4 5 6 6 6 6 5 5 5 4 5 5 9
11 11 10 10 9 11 11 12 11 11 11 11 10 9 7 8 7 8 8 9 8 8 8 8 8 8 6 7 6 5 6 6 5 5 4 5 4 4 3 3 4 4 4 4 4 4 4 4 4 5 5 6 6 6 5 6 5 5 5 4 4 4 5
11 9 7 8 10 11 11 11 10 10 10 9 8 9 9 9 7 8 9 8 8 8 8 8 7 7 7 7 6 6 6 6 7 7 5 5 5 5 4 4 4 4 6 6 6 5 6 5 5 5 6 6 6 5 5 6 6 5 6 6 5 5 4
9 9 10 10 10 11 11 11 11 11 10 10 9 9 8 8 7 7 9 8 8 8 8 8 7 7 7 6 6 5 5 6 5 5 5 5 4 4 5 6 5 6 6 6 6 6 6 6 7 7 6 6 6 6 6 6 6 7 6 7 6 6 5
8 9 8 8 7 8 8 7 9 10 10 8 8 7 7 7 6 6 7 8 8 9 9 8 7 6 7 6 6 6 5 5 4 4 4 4 4 4 4 6 9 7 6 7 7 11 12 9 8 8 6 5 6 6 7 7 8 8 8 10 9 9 10
10 9 9 9 9 8 9 10 11 9 9 8 7 7 7 7 7 7 7 8 8 9 9 8 7 6 6 6 6 6 5 5 4 4 4 4 4 4 5 6 5 9 13 12 12 12 12 12 14 14 11 8 8 8 12 14 15 15 14 12 11 10 10
7 8 9 8 9 9 10 10 9 10 10 8 8 7 7 7 7 7 8 8 8 8 8 8 7 7 7 7 6 6 5 5 4 4 4 4 4 4 4 4 6 8 8 13 14 14 14 14 13 13 13 13 12 9 7 10 14 15 15 14 12 12 11
Wind_Direction
142 153 160 159 161 160 157 150 147 144 128 87 73 118 125 104 97 135 150 135 119 117 118 120 120 115 111 113 115 117 118 119 119 120 115 117 122 131 117 110 112 120 131 136 155 65 360 43 100 46 27 41 45 24 22 15 19 0 15 18 20 30 40
155 156 157 159 157 157 155 150 148 136 116 110 153 157 141 125 139 155 124 118 119 124 125 121 116 114 116 116 116 116 117 118 114 113 114 106 100 102 114 120 124 146 137 113 100 60 54 21 50 70 55 47 44 33 35 24 15 8 13 18 36 28 28
153 156 155 158 158 156 150 145 144 128 124 149 147 128 137 136 150 130 126 122 120 115 118 119 117 115 113 120 117 114 113 115 113 120 120 122 117 109 111 125 138 116 111 112 85 83 44 51 56 60 66 57 44 39 42 42 18 15 16 31 59 53 36
155 157 156 151 144 143 146 145 133 128 136 128 143 159 140 134 138 127 131 133 125 127 127 127 121 117 121 118 112 114 111 110 117 119 120 120 118 121 117 115 97 106 103 90 102 97 71 68 67 61 59 64 53 41 46 42 32 21 21 30 46 46 54
152 148 146 151 153 153 151 146 135 132 132 152 170 140 126 131 130 124 125 124 128 133 134 129 121 113 109 116 120 121 122 120 118 122 119 110 115 122 123 121 120 121 126 97 84 87 79 68 64 69 65 67 63 49 45 43 37 23 28 32 44 31 36
158 155 155 153 153 152 149 141 138 139 142 160 141 130 138 134 128 124 122 117 111 104 105 110 114 115 113 120 120 110 105 107 124 127 121 122 122 123 129 140 138 125 102 102 88 97 83 71 67 60 70 59 62 54 46 51 40 34 30 42 47 34 34
155 155 153 152 150 147 142 135 135 133 139 135 124 132 127 123 125 126 120 115 122 122 119 117 117 117 123 123 121 131 134 129 124 118 117 112 117 119 129 140 122 114 125 94 67 72 74 65 72 67 64 55 44 42 35 50 47 29 40 52 44 40 45
148 151 148 148 147 141 134 129 130 130 134 131 132 137 130 130 130 126 125 127 128 129 133 130 126 125 130 128 132 133 127 120 117 129 120 112 115 109 101 89 88 120 96 85 82 95 92 95 74 67 57 57 39 36 30 34 46 40 43 51 48 38 25
141 151 148 145 140 132 127 128 130 134 136 134 136 130 127 131 129 127 127 134 135 132 137 134 130 128 131 131 131 127 117 120 133 131 118 112 107 110 123 114 105 105 104 99 86 88 106 110 87 72 63 58 52 39 37 27 29 24 57 59 59 58 33
143 143 145 140 131 124 127 130 132 136 138 140 136 127 133 125 121 124 133 138 137 139 141 131 130 127 128 126 125 121 123 136 142 131 125 117 127 123 115 101 108 115 111 119 112 89 85 86 71 71 73 75 56 48 39 33 21 14 37 60 62 70 46
140 135 137 138 136 132 133 138 141 145 143 141 130 132 129 127 130 135 137 141 140 137 132 127 131 124 124 133 134 135 138 143 143 133 126 130 136 118 99 98 119 135 137 135 134 154 98 79 70 73 64 80 73 46 35 35 29 23 15 20 38 64 45
141 139 140 140 137 138 146 149 147 143 143 140 143 141 138 135 137 140 140 134 134 135 130 127 128 131 130 140 138 138 140 145 142 141 142 141 128 112 99 104 120 133 141 154 160 168 146 109 72 80 90 104 122 95 59 17 35 37 7 345 346 355 31
144 142 145 145 142 142 143 150 151 149 145 147 143 142 141 142 146 144 138 130 131 135 136 138 137 139 140 143 143 141 151 156 161 155 160 154 150 141 111 104 115 126 144 170 161 158 160 142 119 244 161 224 207 198 269 310 332 327 318 322 314 312 339
139 138 142 141 142 150 154 152 148 148 145 145 143 142 143 147 146 143 141 137 137 135 133 137 139 142 141 145 145 151 163 171 164 164 161 150 134 114 98 98 98 107 107 109 109 102 154 174 201 228 223 259 271 251 214 224 261 275 261 250 257 287 302
148 149 151 153 155 155 152 154 152 148 147 146 141 142 144 141 136 136 136 138 142 140 140 141 141 143 144 148 155 168 171 167 169 156 142 126 122 118 111 122 137 128 109 93 90 91 89 101 335 284 288 292 292 302 291 254 256 242 241 263 251 202 300
148 156 162 163 162 162 160 156 152 149 147 148 149 149 148 142 145 151 148 150 148 143 141 140 144 145 152 161 167 169 170 168 158 154 143 143 151 153 150 153 161 152 120 99 91 97 92 82 129 199 252 275 285 292 295 285 280 260 257 224 217 235 249
159 166 169 170 168 164 158 156 151 153 154 154 152 152 147 151 154 153 152 151 152 151 154 149 148 155 163 170 172 167 162 156 160 157 166 164 140 147 151 154 143 131 124 119 85 55 31 42 340 269 252 246 261 286 289 278 266 277 289 198 227 176 235
168 172 174 172 170 162 158 157 156 158 162 159 156 156 154 157 159 156 157 157 158 159 154 153 157 164 172 173 168 164 164 162 162 167 175 162 161 148 151 148 130 122 138 133 116 101 110 151 270 292 283 263 252 261 268 273 272 273 277 268 255 252 197
174 178 177 174 167 165 166 166 166 166 162 161 161 162 163 157 158 161 160 161 165 155 160 158 160 164 171 173 178 178 162 158 163 173 176 189 162 150 142 134 112 110 150 190 195 143 208 224 218 239 244 261 260 259 256 255 272 271 268 267 240 212 179
184 183 181 176 172 170 171 166 165 170 171 171 169 166 160 165 159 158 161 160 160 160 161 161 167 170 173 176 185 198 182 157 166 173 187 172 137 134 132 129 151 174 191 150 96 108 283 318 290 291 278 241 235 258 258 254 270 270 270 263 254 227 200
185 182 182 177 174 173 172 171 169 168 167 166 162 154 147 149 152 149 161 167 162 165 162 161 161 169 172 174 180 177 202 177 165 176 181 160 142 135 141 151 165 167 185 149 188 211 249 289 302 292 292 292 293 290 283 276 281 279 272 264 251 238 160
186 183 182 183 179 176 175 174 170 169 166 160 154 155 159 158 157 160 169 165 167 165 163 162 167 174 175 183 181 181 175 184 176 177 170 158 141 140 147 155 184 184 147 143 144 136 92 272 235 267 281 289 292 290 290 286 284 283 283 271 255 238 175
186 189 187 185 180 179 177 172 167 161 155 160 160 159 162 159 157 158 157 159 160 155 159 160 168 178 184 182 175 184 185 178 178 180 175 163 152 156 163 179 217 235 154 135 278 298 278 262 262 277 287 290 288 283 287 287 293 295 289 283 262 244 183
199 193 183 174 168 165 163 157 145 153 157 155 158 157 154 154 149 147 149 149 149 150 146 175 188 186 184 179 176 180 185 184 177 179 177 163 171 182 197 186 231 200 181 189 221 241 243 248 269 261 250 258 274 265 269 288 289 301 307 300 279 232 208
183 132 68 63 85 111 153 147 141 149 154 149 150 153 150 149 148 148 149 150 157 163 169 187 190 181 180 184 182 177 177 177 174 175 171 182 192 189 187 199 205 181 169 193 201 236 243 248 250 277 273 244 251 282 289 289 290 295 295 290 284 238 191
147 120 152 165 153 148 146 145 148 164 159 158 160 152 150 149 151 151 155 158 160 168 181 188 186 182 185 180 175 169 167 173 174 173 178 193 194 196 202 184 180 202 204 213 207 231 243 271 272 278 280 286 291 286 280 279 284 291 293 293 279 220 184
110 114 111 104 107 123 135 156 162 162 163 158 149 150 151 153 153 156 159 157 162 179 181 176 177 180 179 170 166 169 175 181 183 181 200 196 188 190 176 185 202 199 203 230 199 215 254 258 260 265 277 287 283 280 276 249 270 287 290 292 276 211 193
61 58 63 61 98 111 117 134 145 140 138 150 146 151 154 156 157 157 156 160 174 178 165 166 170 167 160 164 173 177 180 187 197 194 201 202 162 166 194 207 198 207 215 231 207 219 259 277 283 288 293 295 288 278 277 281 285 276 287 285 263 197 199
128 139 145 143 141 153 143 132 145 174 152 148 153 154 159 153 150 152 158 166 172 164 166 166 158 156 160 165 170 181 187 192 193 194 197 183 185 174 203 193 192 219 193 199 209 256 282 287 291 301 300 301 293 279 273 275 289 286 283 281 248 204 204
144 135 129 143 145 140 133 131 140 156 152 152 155 157 156 151 146 153 156 166 168 159 156 154 155 151 158 170 177 181 188 187 191 190 192 184 175 185 190 195 203 192 202 185 211 254 273 274 279 279 286 292 297 298 286 269 267 283 285 285 257 217 209
131 141 144 138 144 152 151 155 157 151 148 150 154 159 156 154 149 152 158 170 162 161 159 156 151 156 168 179 184 187 193 178 177 184 188 186 167 175 189 203 170 219 245 192 219 224 242 268 270 270 276 285 282 290 293 288 283 275 284 284 271 228 221
134 140 141 139 145 155 151 144 141 148 146 144 151 154 157 158 150 158 168 163 161 162 157 153 156 167 181 186 189 189 174 170 177 183 187 174 182 185 187 193 188 208 237 202 228 222 234 264 268 270 263 266 272 271 276 288 290 282 282 290 291 260 230
143 152 152 153 145 136 139 141 146 147 149 147 158 155 147 137 155 148 145 166 159 153 155 156 165 175 179 188 188 174 172 176 180 189 191 185 184 192 188 194 186 204 231 222 221 233 234 239 258 267 263 270 273 271 272 279 277 278 282 280 267 264 261
144 143 140 141 138 136 137 145 147 146 150 147 134 133 152 167 161 152 158 159 156 148 152 160 169 177 184 186 179 174 178 182 195 185 191 196 186 192 209 220 203 208 227 228 226 239 256 255 253 254 259 270 268 266 272 276 276 262 266 266 250 249 240
143 140 138 136 141 145 149 150 152 149 140 142 156 169 168 165 159 151 154 157 154 151 156 168 182 181 180 177 173 177 182 182 185 180 185 192 194 214 210 208 209 220 242 238 221 218 232 251 248 245 247 235 251 258 271 269 260 261 240 242 240 237 246
131 128 124 124 128 135 132 123 118 135 146 158 164 165 167 162 156 155 153 156 156 158 165 173 175 171 182 178 184 180 177 171 183 181 185 190 210 233 260 229 221 221 223 259 238 222 226 218 237 242 234 234 239 216 235 249 254 259 252 248 253 257 248
139 138 133 132 128 127 126 132 151 156 155 161 164 168 165 163 162 160 164 163 165 168 172 167 168 177 180 181 187 184 177 174 179 189 189 199 206 219 245 290 268 230 234 242 255 258 249 232 237 249 251 236 263 247 225 243 259 266 266 260 253 252 256
125 130 135 141 142 139 139 148 158 167 174 165 170 170 167 167 172 173 170 169 171 175 167 168 164 174 188 190 193 190 177 173 183 180 190 211 207 214 233 243 282 295 247 228 245 257 257 259 253 249 250 248 239 247 269 248 244 249 256 257 255 254 254